• En España
  • Lista de países
  • Para 7 días
  • Temperatura del agua
  • Mapa Satelital
  • El tiempo en el mapa
  • Informadores
  • user-avatar
    Iniciar sesión

    Tiempo cada hora Ladnoe

    Hoy, 21 Julio, Sábado

    Tiempo Temperatura Precipitaciones Viento Presión Humedad
    00:00 +19°C° 0 mm 1 mps 734 mmHg 98%
    01:00 +19°C° 0 mm 1 mps 734 mmHg 98%
    02:00 +19°C° 0 mm 1 mps 734 mmHg 99%
    03:00 +20°C° 0,1 mm 1 mps 734 mmHg 99%
    04:00 +20°C° 0,1 mm 1 mps 734 mmHg 99%
    05:00 +20°C° 0,1 mm 1 mps 734 mmHg 98%
    06:00 +21°C° 0 mm 1 mps 735 mmHg 96%
    07:00 +21°C° 0 mm 2 mps 735 mmHg 93%
    08:00 +23°C° 0 mm 2 mps 735 mmHg 89%
    09:00 +24°C° 0,2 mm 2 mps 735 mmHg 83%
    10:00 +26°C° 0,2 mm 2 mps 735 mmHg 77%
    11:00 +27°C° 0,2 mm 2 mps 735 mmHg 71%
    12:00 +27°C° 0,7 mm 2 mps 735 mmHg 70%
    13:00 +28°C° 0,7 mm 3 mps 735 mmHg 69%
    14:00 +28°C° 0 mm 3 mps 736 mmHg 69%
    15:00 +27°C° 0,7 mm 3 mps 736 mmHg 72%
    16:00 +27°C° 0,7 mm 3 mps 736 mmHg 74%
    17:00 +26°C° 0,7 mm 2 mps 736 mmHg 76%
    18:00 +25°C° 0,2 mm 2 mps 736 mmHg 82%
    19:00 +23°C° 0,2 mm 2 mps 736 mmHg 87%
    20:00 +22°C° 0,2 mm 1 mps 736 mmHg 92%
    21:00 +21°C° 0 mm 1 mps 736 mmHg 93%
    22:00 +21°C° 0 mm 1 mps 736 mmHg 95%
    23:00 +20°C° 0 mm 1 mps 736 mmHg 96%

    Mañana, 22 Julio, Domingo

    Tiempo Temperatura Precipitaciones Viento Presión Humedad
    00:00 +20°C° 0,3 mm 1 mps 736 mmHg 96%
    01:00 +20°C° 0,3 mm 1 mps 736 mmHg 96%
    02:00 +20°C° 0,3 mm 1 mps 736 mmHg 96%
    03:00 +20°C° 0,4 mm 1 mps 737 mmHg 97%
    04:00 +20°C° 0,4 mm 1 mps 737 mmHg 97%
    05:00 +20°C° 0,4 mm 1 mps 737 mmHg 97%
    06:00 +21°C° 0,6 mm 1 mps 737 mmHg 96%
    07:00 +21°C° 0,6 mm 2 mps 737 mmHg 95%
    08:00 +21°C° 0,6 mm 2 mps 737 mmHg 94%
    09:00 +23°C° 0,6 mm 2 mps 738 mmHg 91%
    10:00 +22°C° 0,6 mm 3 mps 738 mmHg 89%
    11:00 +24°C° 0,6 mm 3 mps 738 mmHg 86%
    12:00 +24°C° 0,2 mm 3 mps 738 mmHg 85%
    13:00 +24°C° 0,2 mm 3 mps 738 mmHg 84%
    14:00 +24°C° 0,2 mm 3 mps 738 mmHg 82%
    15:00 +22°C° 0 mm 3 mps 738 mmHg 83%
    16:00 +22°C° 0 mm 3 mps 738 mmHg 83%
    17:00 +21°C° 0 mm 3 mps 738 mmHg 84%
    18:00 +21°C° 0 mm 2 mps 738 mmHg 86%
    19:00 +20°C° 0 mm 2 mps 738 mmHg 89%
    20:00 +19°C° 0 mm 2 mps 738 mmHg 91%
    21:00 +19°C° 0 mm 2 mps 738 mmHg 92%
    22:00 +19°C° 0 mm 2 mps 738 mmHg 93%
    23:00 +19°C° 0 mm 2 mps 739 mmHg 94%

    Pasado mañana, 23 Julio, Lunes

    Tiempo Temperatura Precipitaciones Viento Presión Humedad
    00:00 +19°C° 0 mm 2 mps 739 mmHg 94%
    01:00 +18°C° 0 mm 2 mps 739 mmHg 95%
    02:00 +18°C° 0 mm 2 mps 739 mmHg 95%
    03:00 +18°C° 0 mm 2 mps 739 mmHg 95%
    04:00 +18°C° 0 mm 2 mps 739 mmHg 95%
    05:00 +18°C° 0 mm 2 mps 739 mmHg 95%
    06:00 +19°C° 0 mm 2 mps 739 mmHg 91%
    07:00 +19°C° 0 mm 2 mps 739 mmHg 88%
    08:00 +20°C° 0 mm 3 mps 739 mmHg 84%
    09:00 +21°C° 0,1 mm 3 mps 739 mmHg 77%
    10:00 +24°C° 0,1 mm 3 mps 739 mmHg 71%
    11:00 +25°C° 0,1 mm 3 mps 739 mmHg 64%
    12:00 +25°C° 0,2 mm 4 mps 739 mmHg 63%
    13:00 +25°C° 0,2 mm 4 mps 739 mmHg 61%
    14:00 +25°C° 0,2 mm 4 mps 739 mmHg 60%
    15:00 +25°C° 0,1 mm 4 mps 739 mmHg 61%
    16:00 +23°C° 0,1 mm 4 mps 739 mmHg 63%
    17:00 +23°C° 0,1 mm 4 mps 739 mmHg 64%
    18:00 +21°C° 0 mm 3 mps 739 mmHg 72%
    19:00 +20°C° 0 mm 3 mps 739 mmHg 79%
    20:00 +18°C° 0 mm 2 mps 740 mmHg 87%
    21:00 +17°C° 0 mm 2 mps 740 mmHg 90%
    22:00 +16°C° 0 mm 2 mps 740 mmHg 94%
    23:00 +15°C° 0 mm 2 mps 740 mmHg 98%

    24 Julio, Martes

    Tiempo Temperatura Precipitaciones Viento Presión Humedad
    00:00 +15°C° 0 mm 2 mps 740 mmHg 98%
    01:00 +15°C° 0 mm 2 mps 740 mmHg 98%
    02:00 +14°C° 0 mm 2 mps 740 mmHg 99%
    03:00 +15°C° 0 mm 2 mps 740 mmHg 98%
    04:00 +15°C° 0 mm 2 mps 740 mmHg 97%
    05:00 +15°C° 0 mm 2 mps 740 mmHg 96%
    06:00 +16°C° 0 mm 2 mps 740 mmHg 93%
    07:00 +17°C° 0 mm 2 mps 740 mmHg 90%
    08:00 +17°C° 0 mm 3 mps 740 mmHg 86%
    09:00 +19°C° 0 mm 3 mps 741 mmHg 83%
    10:00 +20°C° 0 mm 3 mps 741 mmHg 79%
    11:00 +21°C° 0 mm 3 mps 741 mmHg 76%
    12:00 +21°C° 0 mm 3 mps 741 mmHg 77%
    13:00 +21°C° 0 mm 3 mps 741 mmHg 79%
    14:00 +21°C° 0 mm 3 mps 741 mmHg 80%
    15:00 +21°C° 0 mm 3 mps 741 mmHg 82%
    16:00 +20°C° 0 mm 3 mps 741 mmHg 84%
    17:00 +20°C° 0 mm 3 mps 741 mmHg 86%
    18:00 +20°C° 0 mm 2 mps 741 mmHg 88%
    19:00 +19°C° 0 mm 2 mps 741 mmHg 90%
    20:00 +19°C° 0 mm 2 mps 741 mmHg 92%
    21:00 +19°C° 0 mm 2 mps 741 mmHg 93%
    22:00 +18°C° 0 mm 2 mps 741 mmHg 94%
    23:00 +18°C° 0 mm 2 mps 741 mmHg 95%

    25 Julio, Miércoles

    Tiempo Temperatura Precipitaciones Viento Presión Humedad
    00:00 +18°C° 0 mm 2 mps 741 mmHg 96%
    01:00 +18°C° 0 mm 2 mps 741 mmHg 97%
    02:00 +18°C° 0 mm 2 mps 741 mmHg 98%
    03:00 +18°C° 0,2 mm 2 mps 741 mmHg 98%
    04:00 +18°C° 0,2 mm 3 mps 741 mmHg 98%
    05:00 +18°C° 0,2 mm 3 mps 741 mmHg 98%
    06:00 +19°C° 0 mm 3 mps 742 mmHg 95%
    07:00 +20°C° 0 mm 3 mps 742 mmHg 92%
    08:00 +21°C° 0 mm 3 mps 742 mmHg 90%
    09:00 +24°C° 0 mm 3 mps 742 mmHg 78%
    10:00 +26°C° 0 mm 4 mps 742 mmHg 65%
    11:00 +28°C° 0 mm 5 mps 742 mmHg 53%
    12:00 +28°C° 0 mm 5 mps 742 mmHg 50%
    13:00 +28°C° 0 mm 5 mps 742 mmHg 47%
    14:00 +29°C° 0 mm 5 mps 742 mmHg 44%
    15:00 +28°C° 0 mm 5 mps 742 mmHg 49%
    16:00 +27°C° 0 mm 4 mps 742 mmHg 54%
    17:00 +26°C° 0 mm 3 mps 742 mmHg 58%
    18:00 +24°C° 0 mm 3 mps 742 mmHg 64%
    19:00 +22°C° 0 mm 3 mps 742 mmHg 70%
    20:00 +20°C° 0 mm 2 mps 742 mmHg 76%
    21:00 +20°C° 0 mm 3 mps 742 mmHg 77%
    22:00 +20°C° 0 mm 3 mps 743 mmHg 78%
    23:00 +19°C° 0 mm 3 mps 743 mmHg 79%

    26 Julio, Jueves

    Tiempo Temperatura Precipitaciones Viento Presión Humedad
    00:00 +19°C° 0 mm 3 mps 743 mmHg 82%
    01:00 +19°C° 0 mm 3 mps 743 mmHg 84%
    02:00 +18°C° 0 mm 3 mps 743 mmHg 87%
    03:00 +18°C° 0 mm 3 mps 743 mmHg 87%
    04:00 +18°C° 0 mm 3 mps 744 mmHg 88%
    05:00 +18°C° 0 mm 3 mps 744 mmHg 88%
    06:00 +19°C° 0 mm 3 mps 744 mmHg 82%
    07:00 +21°C° 0 mm 3 mps 745 mmHg 76%
    08:00 +22°C° 0 mm 3 mps 745 mmHg 70%
    09:00 +25°C° 0 mm 3 mps 745 mmHg 64%
    10:00 +26°C° 0 mm 3 mps 745 mmHg 58%
    11:00 +27°C° 0 mm 4 mps 745 mmHg 53%
    12:00 +28°C° 0 mm 4 mps 745 mmHg 51%
    13:00 +28°C° 0 mm 4 mps 745 mmHg 50%
    14:00 +29°C° 0 mm 4 mps 745 mmHg 48%
    15:00 +28°C° 0 mm 3 mps 745 mmHg 52%
    16:00 +28°C° 0 mm 3 mps 745 mmHg 55%
    17:00 +28°C° 0 mm 3 mps 745 mmHg 58%
    18:00 +26°C° 0 mm 2 mps 746 mmHg 67%
    19:00 +24°C° 0 mm 2 mps 746 mmHg 76%
    20:00 +22°C° 0 mm 1 mps 746 mmHg 85%
    21:00 +21°C° 0 mm 1 mps 746 mmHg 87%
    22:00 +21°C° 0 mm 1 mps 746 mmHg 90%
    23:00 +19°C° 0 mm 2 mps 746 mmHg 92%
    Mostrar más